User: anonymous   Login
Location: Muenchen
(48.1800°N, 11.5800°E)
Time: 21:57:43
(UTC+02:00)
Language:

Iridium 73 - Orbit

View from above orbital plane
View from above orbital plane
View from above satellite
View from above satellite

Ground track
Ground track

The orbit data is extracted from the following two-line orbital elements,

1 25344U 98032C   16126.21775707  .00000210  00000-0  50229-4 0  9997
2 25344  86.4457  15.3511 0002254  69.0479 291.0966 14.48930153948471
Epoch (UTC): 05 May 2016 05:13:34
Eccentricity: 0.0002254
inclination: 86.4457°
perigee height: 727 km
apogee height: 731 km
right ascension of ascending node: 15.3511°
argument of perigee: 69.0479°
revolutions per day: 14.48930153
mean anomaly at epoch: 291.0966°
orbit number at epoch: 94847

The dashed part of the orbit path shows where the satellite is in the earth's shadow,  

DLR